Theta_e
304 305 307 308 308 308 310 312 313 313 312 312 313 315 317 318 318 319 319 318 318 316 317 317 316 316 315 315 316 317 316 316 315 314 314 314 314 315 317 319 320 320 320 321 323 322 322 323 322 322 322 321 321 320 319 319 318 318 320 319 319 321 323 323 322 321 317 315 315 315 314 316 319 319 319 319 318 319 321 322 323 322 322 322 323 323 321
305 305 307 308 308 308 309 311 313 313 313 313 314 316 318 318 318 319 319 318 318 317 318 317 316 316 315 315 316 317 317 318 317 316 315 314 314 315 316 318 319 319 320 321 322 323 322 323 323 322 323 323 321 319 318 318 318 318 319 319 319 321 322 323 324 324 322 319 318 318 315 315 318 318 318 318 319 319 320 320 320 321 322 323 322 323 322
304 305 306 307 308 308 308 310 312 313 313 313 315 317 317 317 318 318 318 318 318 317 318 318 316 314 314 315 316 317 318 318 319 319 317 315 315 316 316 318 318 318 319 320 321 323 323 322 323 323 324 324 321 318 318 318 317 317 318 318 319 321 322 322 324 325 325 324 323 321 318 315 315 317 317 318 319 320 320 320 320 320 321 322 322 322 321
302 304 306 307 308 307 307 309 311 312 313 313 315 316 316 317 317 317 317 318 318 318 318 318 317 316 315 315 316 316 317 318 317 319 320 318 316 317 317 318 319 319 319 319 320 322 322 322 324 323 324 325 321 318 317 317 316 317 317 316 318 322 321 321 322 324 324 324 324 323 320 316 316 317 317 317 318 319 320 320 320 320 321 322 321 320 321
301 303 305 306 307 307 307 307 309 311 312 313 313 314 314 316 317 316 317 317 318 318 318 318 318 317 316 315 315 315 316 317 317 318 320 319 318 319 319 320 321 320 320 319 319 320 322 323 323 322 324 325 319 315 315 316 316 316 315 315 319 323 321 320 322 323 322 322 322 322 320 317 317 317 317 316 317 318 319 320 320 319 320 321 321 321 322
300 302 304 305 306 307 307 306 307 309 310 311 312 312 314 314 315 314 316 317 317 317 318 319 318 316 315 315 315 315 315 316 317 318 319 319 319 321 321 321 321 320 319 319 319 320 322 323 322 321 324 324 318 315 315 315 314 315 315 314 318 322 322 320 321 321 321 321 320 321 321 318 318 318 317 316 316 317 318 318 318 319 321 321 321 323 323
299 301 303 304 305 306 307 306 306 307 308 309 310 311 313 313 312 312 314 315 314 313 315 317 318 317 315 314 314 315 314 315 316 317 319 319 319 320 321 321 320 320 319 319 319 320 321 322 321 320 322 323 319 318 319 315 311 313 316 314 315 319 320 320 320 320 320 320 320 321 321 320 320 319 318 317 316 316 317 317 317 318 319 319 319 322 322
299 299 301 303 304 305 306 306 306 306 307 307 308 310 312 312 312 312 313 313 313 311 312 314 316 317 315 314 313 312 313 313 314 316 318 319 319 319 320 320 319 320 320 320 320 320 320 321 321 320 321 321 319 319 320 318 313 312 314 314 313 316 319 319 319 319 320 319 319 320 320 321 321 321 320 319 317 316 316 316 316 317 318 318 318 320 319
299 299 300 302 303 304 306 306 306 305 306 306 307 309 311 312 312 313 313 313 312 312 312 313 314 314 314 315 314 312 312 313 314 315 316 317 318 318 319 319 319 319 320 320 320 319 319 320 319 319 319 319 319 318 318 318 316 313 313 314 313 314 317 319 318 318 319 319 318 319 319 319 320 320 319 319 319 318 316 316 316 316 317 318 318 318 318
299 299 299 301 302 303 304 306 306 305 305 306 307 308 310 311 311 312 312 312 310 310 312 313 313 312 312 313 314 314 314 314 315 316 316 316 317 318 318 319 319 320 320 320 319 319 318 319 318 318 318 317 317 317 316 316 317 314 313 313 313 314 316 316 316 318 319 318 319 319 318 319 320 319 319 318 318 318 317 316 316 316 316 317 318 317 317
299 299 299 300 301 302 304 305 305 305 305 305 306 307 309 310 310 310 310 310 308 308 310 311 311 310 310 311 313 314 314 314 315 316 316 315 316 316 317 318 319 320 319 318 318 318 318 318 317 317 317 316 316 316 315 315 315 314 313 313 312 313 315 315 316 318 319 318 318 318 319 320 320 319 319 319 317 317 318 317 316 316 315 316 317 317 319
299 299 299 299 300 301 303 304 305 304 304 304 305 306 308 309 309 308 309 309 308 307 308 309 309 309 308 309 311 312 313 313 313 314 315 314 314 314 315 317 319 318 316 316 317 317 317 316 316 315 315 313 312 313 314 316 315 312 312 314 314 313 313 314 315 317 317 316 316 319 320 320 319 316 315 316 316 316 317 317 316 315 315 315 315 317 320
299 298 298 299 299 301 302 303 304 304 304 303 304 305 306 307 308 308 308 309 308 306 307 307 306 307 307 307 308 308 308 308 309 311 313 313 313 312 312 315 316 315 314 315 316 316 316 315 314 314 313 311 311 312 313 315 315 312 312 313 314 314 313 313 315 315 315 314 316 320 319 318 316 312 309 311 315 316 317 317 317 315 315 315 314 315 317
299 298 298 298 299 300 302 302 304 304 303 303 303 303 305 306 307 308 308 309 307 305 306 307 305 305 306 306 305 305 305 305 306 308 308 309 309 308 309 311 312 312 313 314 314 315 314 314 313 313 312 312 313 313 312 311 310 310 312 312 313 314 313 313 314 314 315 315 316 318 317 317 318 313 308 311 316 317 317 317 317 316 315 314 314 314 315
298 298 298 298 298 299 301 302 303 304 304 303 302 303 304 305 306 307 308 308 307 304 305 306 306 306 305 305 304 305 305 305 306 305 304 303 303 303 305 307 309 311 312 312 313 314 313 313 314 315 314 313 315 314 311 309 306 304 306 308 310 312 313 314 315 315 315 316 317 317 317 318 318 314 310 309 311 313 316 317 317 317 315 313 313 314 315
298 298 298 298 298 299 300 301 302 302 303 303 303 303 303 304 306 306 306 307 307 306 305 306 306 305 304 303 303 304 305 305 306 305 304 303 301 301 303 305 306 309 310 310 311 312 312 313 315 317 315 314 317 316 311 310 308 303 301 304 307 309 310 312 313 314 314 315 317 317 318 318 316 312 307 305 306 310 314 316 317 316 311 310 313 314 312
297 297 297 297 297 298 299 300 301 301 302 302 302 303 303 304 305 305 305 306 306 306 306 305 305 304 303 302 303 303 304 304 304 305 305 304 301 300 301 303 304 306 308 309 310 310 311 313 315 316 315 313 315 315 311 309 310 306 303 305 307 308 309 310 312 314 314 315 316 317 317 316 312 307 304 303 306 310 315 318 317 311 306 307 311 311 308
296 296 297 297 297 297 298 299 300 300 301 301 302 302 302 303 304 304 304 305 305 305 305 305 305 305 304 305 304 303 303 303 303 303 303 303 301 300 301 302 303 305 306 307 309 310 312 313 313 315 315 311 311 314 312 311 311 307 305 306 307 308 309 310 312 313 313 314 315 316 316 313 307 303 301 302 305 311 317 317 310 303 302 305 308 309 308
295 296 296 296 296 297 297 298 299 300 300 300 301 301 301 302 303 303 304 304 305 305 304 305 305 305 305 305 304 303 303 304 304 304 304 303 302 301 301 302 303 304 304 305 308 310 311 312 312 313 314 310 309 311 312 311 310 306 305 308 309 309 309 309 311 312 313 314 314 315 316 311 303 300 299 301 308 314 313 307 302 300 303 305 306 307 307
294 295 295 296 296 296 297 297 298 299 300 300 300 301 301 301 301 302 303 303 304 304 304 304 305 305 305 305 304 304 303 303 303 305 305 304 302 302 304 305 303 303 303 305 308 309 310 311 311 310 311 310 309 310 310 309 306 305 307 310 310 309 310 310 310 311 312 313 313 315 315 308 301 301 304 305 309 311 305 300 299 301 304 305 306 306 306
293 294 295 295 295 295 296 297 298 298 299 300 300 300 300 301 301 301 303 303 303 303 303 304 304 305 305 305 305 306 306 305 305 305 304 302 302 304 306 305 304 303 303 305 307 307 308 309 309 308 307 308 308 308 309 308 306 304 304 307 309 311 311 310 311 312 312 313 313 312 309 304 300 303 306 307 307 306 303 302 301 301 302 304 303 303 303
293 294 294 295 295 295 295 296 297 297 299 300 300 300 300 301 300 301 301 302 302 302 302 303 304 304 304 304 304 305 306 306 306 306 304 302 302 303 303 303 302 303 303 305 306 307 306 307 307 307 306 307 307 307 307 308 309 305 302 304 309 310 308 307 310 310 309 310 309 305 301 300 300 301 302 303 304 304 304 304 302 300 302 302 301 300 300
292 293 293 294 294 295 295 296 296 297 298 299 300 300 300 300 300 300 301 301 300 300 301 302 303 303 303 304 304 304 304 304 304 304 304 303 301 301 301 301 302 302 302 303 304 305 306 306 306 307 307 307 307 307 306 307 308 306 304 306 306 303 301 304 308 307 305 304 302 300 299 299 299 300 301 302 302 301 300 300 300 300 300 300 299 300 299
292 292 293 293 294 294 295 296 296 296 297 298 299 300 300 300 299 299 299 299 299 299 299 300 301 302 303 303 303 303 303 303 303 303 303 303 302 301 301 301 302 302 301 302 303 303 303 303 303 305 307 307 306 307 308 307 306 305 306 306 304 300 299 302 306 307 307 305 299 297 298 298 298 299 299 299 300 299 299 300 300 299 299 299 299 299 298
291 292 292 292 293 294 294 295 296 296 296 297 298 299 299 299 299 299 299 298 299 299 300 299 299 301 302 303 303 302 301 301 301 301 302 302 302 302 302 301 302 302 302 302 302 302 301 302 302 303 306 306 306 306 307 307 306 305 305 306 306 303 301 303 305 304 303 301 296 294 295 297 298 299 298 298 299 299 299 300 300 299 299 299 298 298 298
291 292 292 292 292 293 294 295 295 295 296 297 297 298 299 299 299 298 298 298 299 299 300 300 299 299 301 301 301 301 300 300 300 300 301 301 301 302 302 302 301 301 301 302 301 301 300 300 302 304 305 305 305 305 305 304 304 304 304 304 303 302 302 303 304 302 299 297 294 294 296 297 297 298 298 298 299 299 299 300 299 298 298 297 297 297 297
291 291 292 292 292 292 293 294 295 295 296 296 297 298 298 298 298 298 298 298 299 299 300 300 299 298 299 299 300 300 299 299 299 299 299 300 300 300 301 301 301 300 301 301 300 300 299 299 301 302 302 301 301 301 301 300 300 302 303 301 299 301 302 302 302 303 302 300 296 297 300 301 298 298 298 298 298 299 299 299 299 298 297 297 296 296 296
291 291 291 291 292 292 292 293 294 295 295 296 297 297 298 298 298 298 298 298 298 299 300 300 298 297 298 298 298 299 298 298 298 298 298 298 299 299 300 301 301 300 300 300 299 299 300 300 300 299 297 298 300 300 298 298 299 300 301 300 298 300 302 301 302 303 303 301 298 298 301 301 298 299 300 298 298 299 300 299 299 298 297 297 296 296 296
291 291 291 291 292 292 292 293 294 294 295 296 296 297 297 298 298 298 298 298 298 298 299 298 297 297 297 297 297 298 297 297 297 297 297 297 297 298 298 299 300 300 300 299 299 299 300 299 298 299 298 298 301 301 299 299 301 302 301 300 299 300 300 300 301 300 298 298 299 299 298 298 298 300 301 299 298 300 300 299 299 298 297 297 296 296 295
290 291 291 291 291 292 292 292 293 294 295 296 296 297 297 298 298 298 298 298 298 298 298 298 297 297 297 297 297 297 297 297 297 297 296 296 296 296 297 298 299 299 299 299 299 299 299 296 295 297 298 298 299 301 300 299 300 301 300 299 299 299 299 299 300 299 297 298 298 298 298 298 298 299 299 299 300 300 300 299 298 297 297 296 296 296 295
291 291 291 291 291 292 292 292 293 294 295 296 296 297 297 298 298 298 298 298 298 298 298 298 297 296 296 295 296 296 297 297 296 296 296 296 295 296 296 297 298 298 298 298 298 298 299 297 295 296 296 297 299 300 299 298 300 300 298 297 298 298 298 298 298 298 298 298 297 297 297 297 297 297 298 298 299 299 298 298 296 295 295 295 295 294 294
291 291 291 291 291 292 292 292 292 293 294 295 296 296 297 298 299 298 298 298 298 297 297 298 297 296 295 295 295 295 296 296 296 295 295 295 295 295 295 296 296 297 297 297 297 297 297 297 296 295 295 297 299 298 297 298 300 299 296 295 297 298 298 297 297 297 297 297 296 296 295 295 295 296 296 295 296 296 295 295 294 294 294 294 294 293 293
291 291 291 291 291 291 292 292 292 292 293 295 295 296 297 297 298 298 298 298 297 297 297 298 297 296 296 295 294 294 295 295 295 294 294 294 294 294 294 295 295 295 296 296 297 297 296 295 296 296 296 296 297 297 297 298 298 296 295 296 297 297 297 296 297 296 296 296 296 295 295 295 295 294 294 294 294 294 294 294 294 293 293 293 293 293 293
291 291 291 291 291 291 292 292 292 293 293 294 295 296 296 296 297 298 298 298 297 296 297 298 297 296 296 294 293 294 295 294 294 294 294 294 294 294 294 294 294 295 295 295 296 296 295 295 296 296 296 296 295 296 297 298 296 294 295 296 296 296 296 295 296 296 295 295 295 295 295 295 294 293 294 294 293 293 293 293 293 293 293 293 293 293 293
291 291 291 291 291 292 292 292 292 293 294 294 294 295 295 296 296 297 298 298 297 296 297 297 297 296 295 294 294 294 295 294 294 295 294 294 294 293 294 294 294 295 295 295 295 296 296 295 295 296 296 296 295 296 297 297 294 293 293 294 294 294 294 294 294 295 294 294 294 294 294 294 294 293 293 293 293 293 293 293 293 293 293 293 293 293 293
291 291 291 291 292 292 292 292 292 293 293 293 294 294 295 295 296 297 297 297 296 296 297 297 297 296 296 295 295 294 294 294 295 295 294 293 293 293 294 294 294 295 295 294 295 295 296 295 295 296 296 296 295 295 296 296 294 293 293 294 294 294 294 295 294 294 294 294 293 293 293 293 293 293 293 293 293 293 293 293 293 293 293 293 293 293 293
291 291 292 292 292 292 292 291 291 292 292 293 293 294 295 295 295 296 297 296 296 296 296 297 297 297 296 296 295 294 294 295 295 294 293 293 293 293 293 294 294 295 294 294 294 295 295 295 295 295 296 296 296 296 296 296 295 294 294 294 294 294 294 295 294 294 293 292 292 293 293 292 292 292 292 292 293 293 293 293 293 293 293 293 293 293 293
290 291 291 292 292 292 292 292 292 292 292 292 293 293 295 295 295 295 295 295 296 295 295 296 297 297 296 296 295 293 294 295 294 293 294 293 293 294 293 293 294 295 294 293 294 295 295 295 295 295 295 295 295 295 295 296 295 295 295 295 295 294 294 294 294 293 293 292 292 292 292 292 292 292 292 292 293 293 293 293 293 293 293 293 293 293 293
290 290 291 291 291 291 291 291 292 292 292 292 293 293 294 295 295 294 294 294 295 295 295 296 297 296 296 296 294 294 295 295 294 294 294 293 294 295 294 293 294 295 294 295 295 295 295 295 295 294 295 295 295 295 295 295 295 295 295 295 294 294 294 294 294 293 293 293 293 294 293 293 293 293 293 293 293 293 293 293 293 293 293 293 293 293 292
290 290 290 291 291 291 291 292 292 291 292 293 294 293 293 293 294 294 294 294 294 295 296 297 297 297 296 296 295 294 295 295 295 295 295 294 294 295 294 294 295 294 294 296 296 294 293 295 295 294 294 294 294 294 295 295 294 294 294 294 294 294 293 293 293 293 293 293 293 294 294 293 293 293 293 293 293 293 293 293 292 293 293 293 293 293 293
290 290 290 290 291 291 291 292 292 292 292 293 292 291 292 293 291 291 293 294 294 295 296 296 297 297 296 295 295 295 295 295 296 295 295 295 295 295 295 295 294 294 295 296 295 293 293 294 294 295 295 293 292 293 294 294 294 293 293 293 293 293 293 293 293 293 293 292 292 293 293 293 293 293 293 293 293 293 293 293 292 293 293 292 292 292 292
290 290 290 290 291 291 291 292 292 292 292 292 291 290 292 292 289 288 291 293 293 294 296 296 296 296 295 295 296 295 295 295 295 295 295 296 295 295 295 295 294 294 295 295 294 294 293 293 294 295 292 288 288 290 292 292 292 292 293 293 293 293 293 293 293 292 292 292 292 292 292 292 292 292 292 292 292 292 292 292 292 292 292 292 292 291 291
289 290 290 290 291 291 291 292 292 290 290 290 290 290 291 291 290 291 292 290 289 292 295 296 295 296 296 295 295 295 294 295 296 295 295 295 294 294 294 294 293 294 295 294 295 295 294 294 296 294 286 281 282 287 288 289 290 291 291 292 292 292 292 292 292 292 292 291 291 291 291 292 292 292 292 292 292 292 292 292 291 291 291 291 291 291 290
290 290 290 290 290 290 290 292 292 290 289 290 290 290 291 291 290 291 292 289 289 292 296 295 295 296 296 295 294 294 294 295 295 294 294 293 293 294 294 294 294 294 293 293 295 296 295 295 294 288 279 277 280 283 284 286 288 289 289 290 291 291 291 292 292 292 292 291 291 291 291 292 292 292 291 291 291 291 291 290 290 290 290 289 289 289 289
290 290 290 289 289 290 290 289 289 289 290 290 290 291 291 292 291 292 292 291 291 294 295 295 295 296 295 294 294 295 294 294 295 295 294 293 294 294 294 293 293 293 294 294 294 294 295 296 291 282 276 275 277 279 281 283 285 285 286 288 289 289 290 291 291 291 291 291 291 291 291 291 290 290 290 290 289 289 289 289 288 288 288 288 288 288 288
291 290 290 289 289 289 289 289 289 290 291 292 292 291 291 292 293 292 292 291 292 293 294 295 295 295 294 293 294 294 293 294 295 294 293 293 294 294 293 292 292 292 294 294 293 293 296 294 285 276 272 273 274 275 278 280 281 283 284 286 287 288 288 289 289 290 290 290 290 289 289 289 289 288 288 288 288 288 287 287 287 287 287 287 287 287 287
290 290 290 289 289 289 290 289 288 288 289 290 291 291 291 292 292 292 291 292 293 294 294 294 294 293 293 292 293 292 292 293 294 293 293 293 293 291 290 291 292 293 293 293 294 296 294 285 274 268 269 271 272 274 276 278 279 281 282 283 284 286 286 287 288 288 288 288 288 288 287 287 287 287 287 287 287 287 287 287 287 287 286 286 286 286 286
290 290 290 289 288 288 289 288 286 285 286 287 288 289 290 291 292 291 291 292 293 294 294 293 293 292 292 292 292 292 291 291 292 293 292 291 291 291 291 291 292 292 293 294 294 292 283 273 267 267 269 270 271 273 275 276 278 279 281 282 283 284 285 286 286 286 286 287 287 286 286 286 286 286 286 286 286 286 286 286 285 285 285 285 285 284 284
288 287 286 285 285 285 285 286 287 286 285 285 286 287 289 290 290 290 290 292 294 294 293 293 293 293 292 291 292 292 291 291 292 292 291 291 291 292 291 291 293 294 292 287 282 276 269 265 265 267 268 269 271 273 274 275 277 278 279 281 282 283 284 285 285 285 285 285 285 285 285 285 285 285 285 284 284 284 284 284 284 284 283 283 283 283 282
284 282 279 280 283 284 284 286 289 288 286 285 286 286 287 288 288 288 289 292 293 293 292 292 292 291 290 291 291 291 291 291 291 291 291 291 291 291 292 292 294 292 283 274 268 266 264 264 265 266 267 269 271 272 273 274 276 277 278 279 280 281 282 283 284 284 284 284 284 284 284 283 283 283 283 282 282 282 282 282 282 282 282 282 281 281 281
280 278 275 274 276 277 279 283 287 287 285 283 282 280 281 283 284 285 287 290 292 292 292 291 291 290 291 291 291 291 291 290 290 291 290 286 285 290 294 291 283 276 270 266 264 263 263 263 265 267 267 268 270 271 272 274 274 275 277 278 279 280 281 282 282 283 283 282 282 282 282 281 281 281 281 281 281 280 280 280 280 280 280 280 280 280 280
278 276 274 272 271 270 271 276 280 279 277 276 275 275 276 278 280 282 284 288 291 291 290 289 290 291 291 290 290 291 291 289 290 292 288 279 274 277 281 276 269 265 265 264 263 262 262 263 265 267 267 268 270 271 272 273 274 275 276 278 279 280 280 280 281 281 281 281 281 280 280 280 280 280 279 280 279 279 279 279 279 279 279 278 278 278 277
Wind_Speed
27 27 26 23 22 22 22 21 21 23 22 23 26 27 27 23 19 24 24 27 44 40 12 8 11 6 15 25 21 10 6 11 13 15 20 20 17 14 9 9 11 9 8 9 8 9 8 10 11 8 9 10 9 19 27 23 18 12 4 4 5 5 3 4 2 1 1 2 2 3 4 3 0 4 6 8 9 9 7 5 2 2 6 4 2 7 7
26 26 27 25 22 21 22 22 22 23 24 25 26 26 23 22 25 24 21 29 41 28 6 8 11 8 14 17 16 16 12 11 13 13 17 17 14 13 12 11 12 10 7 6 7 9 8 10 12 9 6 7 9 22 31 25 16 10 7 8 9 5 2 3 3 1 1 1 1 2 2 1 3 5 7 9 10 9 7 3 1 4 8 7 5 10 6
25 24 25 26 24 21 21 23 24 24 26 26 25 24 20 18 19 19 28 42 45 30 18 16 11 11 16 14 16 18 13 12 16 13 14 18 15 12 14 13 11 9 8 7 8 10 10 8 9 8 7 4 3 16 30 28 17 12 14 19 18 8 3 5 5 6 8 7 5 4 4 3 3 5 8 11 12 12 9 4 4 9 7 8 9 12 4
26 23 23 25 25 22 20 22 24 25 26 27 27 24 16 10 8 8 18 34 38 34 36 30 15 13 18 12 13 18 14 12 17 13 10 16 18 14 13 13 11 9 12 12 12 14 13 8 6 6 7 3 2 8 23 27 20 11 15 24 17 4 3 9 11 11 12 12 7 4 8 7 8 10 13 14 14 14 10 5 9 9 3 6 14 12 8
27 24 22 23 25 24 21 20 22 24 25 26 28 26 16 6 5 5 8 14 16 18 25 25 14 14 19 11 9 19 20 12 11 12 11 16 19 13 8 10 12 13 16 17 15 15 12 9 9 9 7 2 3 2 9 15 16 11 15 22 14 3 3 12 15 16 17 17 13 6 10 13 15 15 16 16 16 15 13 13 14 8 4 12 13 8 12
26 25 23 22 23 24 22 20 20 22 23 23 22 22 18 8 4 9 11 8 5 7 11 15 13 15 17 10 8 15 19 14 11 12 12 15 15 9 5 10 17 19 19 15 12 12 11 11 13 12 7 4 2 2 1 4 10 10 10 14 9 3 7 12 13 16 18 19 16 10 10 12 12 14 17 18 18 19 20 21 19 11 10 17 10 9 16
26 26 24 23 23 23 23 22 20 21 21 19 17 17 18 11 4 7 10 7 4 4 4 6 12 16 14 10 10 13 17 19 16 10 7 9 11 11 11 15 19 19 17 13 11 11 12 13 14 12 9 5 5 4 1 1 5 5 5 6 3 3 7 9 9 11 17 19 17 14 11 10 9 12 14 16 20 23 23 22 21 16 17 22 14 11 17
26 26 25 25 23 22 22 23 21 20 20 18 18 20 19 13 6 5 7 6 5 5 5 2 5 10 12 11 11 13 16 20 17 12 11 10 11 14 18 20 18 16 15 15 15 16 17 18 16 12 10 7 5 6 5 3 4 3 4 2 1 2 4 3 4 5 14 18 16 13 13 13 13 12 13 16 20 21 19 18 18 15 19 23 17 14 17
26 26 26 26 25 22 21 22 21 19 18 17 17 20 21 18 13 9 6 3 2 4 6 5 3 4 7 10 11 12 18 22 18 16 20 19 12 13 19 21 14 12 15 16 18 21 20 18 15 10 10 11 10 8 6 8 7 5 5 3 2 3 2 1 4 5 14 16 13 13 13 12 14 17 21 23 19 13 14 16 15 15 18 19 14 14 16
26 26 26 26 26 23 20 21 21 18 17 18 16 16 19 19 16 13 10 4 2 3 2 5 6 4 4 9 11 11 17 21 15 11 16 23 23 19 20 19 12 10 15 19 26 29 22 16 15 10 9 13 14 12 11 12 11 8 6 3 3 6 5 3 5 7 12 12 9 9 9 8 12 18 23 24 18 13 13 15 16 18 17 14 12 14 13
25 25 25 25 25 24 21 20 22 21 19 20 18 17 18 18 15 12 9 2 1 3 3 3 4 2 3 7 11 10 13 15 13 9 7 12 22 24 20 16 12 10 13 19 24 24 19 15 12 8 6 7 8 12 14 13 13 13 10 5 4 7 8 6 5 5 9 6 5 5 6 10 11 9 9 12 16 18 18 18 18 18 15 12 11 9 4
25 24 24 24 23 23 23 21 20 22 22 20 18 19 18 17 16 13 8 3 2 4 3 4 4 2 3 6 7 8 10 10 10 14 12 5 8 16 17 14 10 8 10 13 15 13 9 6 2 1 2 2 2 5 9 9 10 12 12 9 8 9 9 6 4 3 4 2 6 4 9 11 6 3 2 4 10 16 19 20 19 17 16 16 15 10 5
24 23 23 23 23 22 23 23 20 20 22 21 20 22 20 15 16 15 9 3 2 4 4 3 4 4 5 6 6 5 6 5 3 8 12 8 5 9 13 14 11 8 9 12 14 11 5 2 3 2 2 4 5 1 5 8 8 9 11 9 8 10 9 5 3 3 1 3 6 8 6 3 3 3 2 2 3 7 12 15 17 18 16 16 18 16 9
21 23 22 22 22 21 21 23 21 19 21 22 21 23 22 18 17 17 13 6 1 4 6 3 2 6 7 7 6 3 3 4 3 1 3 5 5 6 10 13 12 12 14 15 12 9 4 2 2 1 1 2 1 1 3 4 3 5 9 8 6 8 8 5 4 5 4 5 8 6 6 8 8 4 3 5 6 8 10 10 13 15 15 14 16 14 8
19 21 21 21 22 21 21 22 21 19 21 24 24 24 24 21 19 18 16 10 2 2 7 6 5 7 8 6 8 5 2 3 4 2 1 3 3 4 8 12 14 17 20 15 7 4 3 2 3 3 2 3 3 2 2 1 1 1 2 2 3 5 7 8 7 6 5 7 7 4 5 10 8 4 6 8 6 7 10 7 7 6 9 14 14 10 9
17 18 20 21 21 21 21 22 21 19 20 23 25 26 26 23 22 20 17 13 7 2 7 15 14 9 6 6 9 8 3 3 4 2 2 2 3 5 9 12 14 19 20 11 2 3 4 3 3 4 4 4 3 1 2 2 1 1 3 2 2 2 2 5 6 4 5 7 6 6 7 6 3 2 4 4 3 5 8 3 6 4 4 15 16 9 10
17 16 17 19 20 20 21 22 21 18 18 20 23 27 28 25 22 21 18 15 10 3 6 17 17 11 7 4 5 5 3 3 3 1 1 3 3 6 9 10 11 15 14 7 2 2 4 3 3 3 2 2 4 2 2 3 3 1 1 2 3 3 2 4 6 6 7 8 7 5 4 3 2 4 3 1 4 10 9 2 6 3 1 8 12 8 10
17 17 16 17 19 20 20 22 22 19 18 19 20 23 26 26 23 22 20 16 11 4 7 16 18 12 8 7 7 8 9 6 3 1 1 3 2 4 8 8 6 7 9 6 3 4 6 5 4 4 3 2 3 2 3 5 4 3 5 5 3 3 3 4 7 9 9 10 8 4 2 2 3 5 5 3 5 7 6 4 4 2 3 2 6 7 11
17 17 17 17 18 19 20 20 21 20 18 18 19 20 22 22 22 23 22 17 11 6 9 17 21 18 15 12 11 12 12 9 7 4 2 1 3 6 9 6 3 3 4 4 2 4 5 4 2 3 2 2 2 2 3 4 3 4 7 6 4 4 3 3 6 7 6 6 6 3 2 2 4 3 3 3 4 3 5 3 1 1 1 2 2 6 10
19 19 18 17 17 19 20 20 20 19 18 18 18 20 21 20 20 24 24 19 13 9 10 17 22 22 20 17 16 16 13 11 10 7 1 2 8 10 6 2 3 2 2 3 3 2 3 3 2 2 2 2 3 2 2 1 1 2 4 4 3 5 5 4 5 5 2 3 5 3 2 4 9 8 2 0 2 4 6 6 3 2 4 3 4 5 6
21 21 20 19 18 18 19 20 20 19 18 17 18 19 21 20 20 22 25 22 14 8 9 16 21 23 22 20 19 20 18 16 17 13 7 8 13 10 2 0 4 4 1 2 3 1 1 2 2 1 1 1 1 2 2 2 0 1 1 1 1 3 4 3 4 4 3 4 5 3 2 3 8 6 2 2 4 6 8 6 4 6 8 8 7 5 4
23 22 21 20 19 18 19 20 20 20 19 17 17 18 21 23 22 21 24 24 16 9 9 14 18 22 23 20 18 19 18 17 19 19 14 13 14 10 3 4 5 4 2 2 2 0 1 2 2 2 1 1 1 1 1 2 2 1 1 1 2 1 2 2 1 1 1 2 3 1 1 5 6 5 4 7 8 7 7 8 9 11 11 10 8 6 4
24 24 23 22 21 19 19 20 20 20 20 18 17 19 21 23 23 21 21 22 18 11 8 11 15 19 23 23 19 18 17 14 14 18 17 14 11 8 5 6 6 4 3 2 1 0 1 1 1 2 1 1 2 2 1 0 2 2 2 2 2 0 2 1 1 1 1 2 3 2 3 9 9 6 9 14 14 11 11 12 12 11 9 8 7 4 4
25 25 25 24 23 21 20 20 20 20 21 19 18 20 22 23 23 22 19 17 15 10 5 8 14 19 23 26 22 18 18 18 16 16 17 16 12 7 5 9 10 7 5 5 3 3 3 1 0 1 1 1 2 3 1 2 2 2 2 1 2 2 3 2 2 2 2 1 2 2 4 9 11 10 13 17 17 15 14 12 10 8 7 7 6 5 6
25 26 25 25 25 23 22 21 21 21 21 20 19 21 22 22 22 22 19 15 14 10 3 5 14 19 21 23 24 20 20 21 19 17 17 18 17 12 10 13 13 9 8 9 8 5 3 2 1 1 1 1 2 2 2 2 2 3 3 2 2 3 6 5 2 1 2 1 0 1 4 8 10 12 16 18 17 16 14 11 9 7 7 9 9 9 8
26 26 26 26 26 25 24 22 21 21 21 20 20 21 22 22 20 21 22 17 12 9 5 2 9 17 19 20 23 23 21 20 20 20 18 17 18 16 14 15 14 10 9 11 10 6 3 2 1 1 1 1 1 2 1 1 1 1 2 3 3 7 7 4 2 3 3 1 1 2 4 3 7 11 16 19 19 17 14 10 8 8 9 10 9 9 7
28 27 27 26 26 26 25 24 23 22 21 20 20 21 22 22 18 19 24 22 12 5 4 2 6 15 20 20 22 24 22 21 20 20 19 19 18 16 14 14 14 14 13 11 8 6 3 1 0 1 1 1 2 2 0 1 2 1 3 3 5 7 4 2 3 4 2 2 6 8 4 1 9 16 19 21 20 17 13 10 9 9 10 9 8 6 6
29 28 28 27 27 27 26 25 24 23 22 21 21 20 20 21 19 18 22 26 18 5 2 3 8 13 15 17 20 23 23 22 22 20 19 19 18 16 15 15 15 17 16 12 6 3 2 2 2 2 1 2 2 1 1 2 1 2 3 5 7 6 4 4 5 3 2 6 15 16 7 3 11 20 23 23 22 18 13 10 10 11 10 8 6 5 5
29 29 28 28 27 27 27 26 25 24 22 20 20 19 19 21 21 19 20 25 25 13 1 6 7 9 9 13 19 22 21 20 21 20 19 18 17 16 16 16 16 17 16 12 7 3 2 4 5 4 3 3 3 1 1 1 2 4 3 9 13 10 7 9 9 5 2 8 18 18 10 5 10 17 21 23 21 16 13 13 13 12 10 8 7 7 6
29 29 28 28 27 27 27 26 25 24 22 20 19 17 15 16 22 24 21 22 28 23 8 4 3 6 8 12 18 22 20 19 19 19 18 17 17 16 17 17 18 18 15 10 7 5 4 4 5 5 7 8 5 1 1 2 3 3 5 13 17 14 11 11 11 8 6 11 17 16 11 8 10 13 16 20 20 18 18 17 14 10 8 8 9 8 6
28 28 28 27 27 28 27 27 26 24 23 21 19 14 8 8 16 23 22 21 27 27 14 3 3 5 5 8 15 21 22 21 19 18 17 17 16 17 18 18 19 18 15 11 9 7 5 4 4 4 7 9 6 1 2 3 3 4 6 15 18 18 17 14 12 11 13 15 17 15 11 11 13 14 16 18 20 19 17 14 10 8 7 8 7 6 5
25 26 27 27 28 28 27 27 27 26 25 25 24 19 13 8 8 14 19 21 25 25 14 4 3 3 1 4 12 19 21 21 20 19 17 17 18 18 18 17 16 16 15 11 8 6 4 4 5 6 7 9 7 2 2 4 5 3 9 16 18 19 19 16 14 14 16 16 16 13 10 12 16 15 13 13 13 11 9 8 7 6 6 6 5 4 4
21 23 25 27 27 27 28 27 27 27 26 26 25 25 24 17 8 7 15 21 23 22 13 4 1 2 3 6 11 18 21 19 18 18 15 14 17 17 14 13 13 12 12 9 6 4 5 5 6 6 6 7 6 2 1 6 6 6 13 17 18 18 17 15 14 14 14 15 14 11 11 15 17 14 11 9 7 6 6 6 6 6 6 6 6 6 6
16 19 22 24 25 26 26 24 25 26 25 24 25 27 29 25 15 10 16 22 21 17 12 6 2 1 4 6 6 15 21 16 13 14 11 9 16 17 13 11 11 8 7 9 7 4 4 5 6 5 4 4 4 1 4 6 7 13 16 16 17 17 16 15 15 14 13 15 14 12 11 13 14 13 12 10 8 7 7 7 8 9 9 10 10 9 9
12 15 19 21 23 24 24 23 24 25 23 23 26 27 26 26 21 16 19 24 19 8 5 7 3 1 5 4 1 12 19 13 10 13 10 7 14 17 11 7 6 5 6 9 7 3 3 7 8 5 3 2 3 4 5 4 10 16 17 17 18 19 17 15 15 14 14 15 14 13 11 10 10 10 10 10 9 9 9 9 10 11 12 13 12 11 11
10 11 15 17 18 21 23 23 24 24 24 26 29 27 23 24 23 19 22 27 20 6 3 7 4 2 5 2 1 12 18 12 9 13 10 7 10 12 8 5 4 4 5 5 3 2 6 9 7 3 2 4 6 7 6 9 14 19 21 20 21 21 16 12 12 13 13 14 15 14 12 11 10 9 9 10 10 10 10 11 11 12 13 13 12 11 11
10 9 11 14 17 18 18 19 21 25 26 28 28 24 20 20 20 21 26 30 22 10 6 5 3 7 9 3 3 14 18 12 10 11 7 5 7 6 5 4 3 3 3 1 1 4 8 7 5 3 4 8 11 12 8 10 13 16 18 18 19 18 15 12 11 11 12 12 13 13 13 12 12 12 13 13 13 13 13 13 12 12 13 12 11 10 10
12 10 9 13 15 13 12 17 23 26 26 26 25 20 16 16 16 15 19 22 17 13 11 6 3 10 11 4 6 18 19 11 8 7 5 6 7 4 3 3 3 2 3 1 4 8 7 3 3 3 5 10 15 18 13 9 9 10 11 12 14 14 14 12 12 12 13 12 11 14 16 16 16 17 17 17 16 15 14 13 12 12 12 12 11 11 11
12 10 8 11 14 14 14 18 22 23 22 22 20 14 11 11 10 6 7 9 7 8 10 6 4 11 11 4 6 17 17 10 6 4 4 8 9 4 3 2 2 2 2 2 7 11 6 1 2 3 4 8 16 21 16 9 9 11 12 11 11 12 12 12 12 13 13 11 11 12 14 14 15 16 16 16 16 15 14 13 13 12 13 13 13 14 14
14 11 9 10 14 17 17 16 16 17 17 17 14 9 6 7 7 4 4 5 3 4 8 8 9 15 17 11 10 14 16 13 10 7 6 8 9 6 4 1 2 3 1 3 6 9 5 2 3 4 6 8 12 17 14 11 11 13 15 14 14 14 14 14 13 14 14 13 13 13 12 13 13 13 13 14 15 14 14 14 13 13 14 14 15 15 15
14 11 10 11 13 16 15 13 12 13 13 11 8 4 3 4 3 1 2 4 2 3 9 12 9 9 13 15 13 11 13 16 14 10 7 6 7 7 4 1 1 3 2 3 5 5 2 2 3 5 8 6 4 7 12 16 17 18 18 18 18 17 17 17 17 17 17 17 16 15 14 14 14 13 13 14 14 13 14 14 13 14 14 14 15 15 15
15 12 10 11 13 14 14 13 12 10 6 4 3 2 2 2 1 0 1 3 2 2 8 12 9 8 14 19 16 11 12 16 14 9 4 4 5 6 3 1 1 2 2 3 6 4 1 3 4 6 5 5 8 11 17 19 19 19 19 19 20 20 19 20 19 19 20 19 18 17 15 15 15 14 13 13 13 13 13 13 13 13 13 13 14 14 14
18 16 13 12 12 14 14 11 10 7 3 1 2 2 1 1 1 1 0 1 1 1 6 11 12 12 15 18 13 9 12 17 13 5 2 3 4 4 2 1 2 2 1 3 4 3 3 5 6 5 4 10 12 15 18 19 18 19 19 19 19 20 20 20 20 19 19 18 17 17 15 14 14 14 13 13 13 12 12 12 12 12 12 12 12 12 12
18 18 14 10 9 10 8 6 7 6 3 2 3 4 3 3 2 1 1 2 2 4 9 15 18 14 13 15 12 8 8 12 9 3 2 3 3 2 2 3 3 2 2 2 2 2 3 4 4 3 9 12 12 14 16 18 18 18 17 17 17 18 18 18 17 17 16 15 15 15 15 14 13 13 12 11 11 11 10 10 10 9 9 9 9 9 9
17 14 10 6 5 6 5 3 3 4 3 4 4 4 5 5 4 2 3 6 8 8 10 18 21 16 10 12 12 7 4 6 6 3 2 2 1 1 2 2 1 2 2 2 2 2 3 4 2 5 10 11 11 12 14 15 16 16 16 15 16 17 17 17 17 16 15 14 14 14 13 12 11 11 10 9 9 9 8 7 7 6 6 6 6 7 7
18 12 7 3 3 5 4 1 1 2 2 4 5 5 5 6 6 5 7 10 13 13 14 17 18 15 9 7 7 5 4 5 4 2 2 3 2 1 2 2 2 2 3 3 2 3 5 4 2 6 9 10 10 10 11 13 14 15 15 15 17 18 18 17 17 16 14 13 13 12 11 10 10 9 8 8 7 7 6 6 5 5 4 4 4 5 6
15 11 8 3 1 3 3 2 3 3 2 3 5 6 9 10 10 10 13 16 18 20 19 15 12 11 8 5 4 4 4 3 2 1 2 3 2 1 2 2 1 2 4 4 5 5 4 2 4 6 7 9 8 9 10 11 12 13 14 14 15 16 16 16 15 14 13 13 12 12 11 10 10 9 8 8 7 7 7 6 5 5 5 5 5 5 5
13 10 7 3 1 2 3 4 6 5 2 3 5 6 9 11 10 10 15 19 22 25 25 17 9 6 4 3 3 3 1 1 2 2 1 2 2 1 2 1 2 2 3 4 5 3 2 3 4 4 5 6 7 8 10 10 11 12 12 12 13 14 15 15 15 15 14 14 14 13 12 12 11 10 10 9 8 7 7 7 6 6 5 5 4 4 4
11 8 5 1 1 1 1 5 8 6 2 2 6 7 7 8 8 10 15 18 22 25 25 19 12 7 3 1 2 2 0 1 2 2 1 2 2 2 2 3 3 3 2 1 1 2 3 3 2 3 4 5 7 8 9 9 11 12 11 11 11 13 15 15 16 15 15 15 15 14 13 13 12 10 10 9 7 7 7 6 5 4 3 3 2 2 2
8 6 4 3 2 1 3 2 6 4 2 3 5 3 1 4 7 9 11 15 20 22 18 11 9 6 2 1 2 2 1 1 2 2 2 2 2 2 3 4 4 3 2 2 3 3 3 2 2 3 3 5 6 7 8 9 10 11 11 10 10 11 14 15 16 16 16 15 14 13 13 12 10 9 9 8 7 6 6 5 4 4 3 2 2 1 1
7 6 6 6 6 4 5 1 4 5 3 3 4 6 5 3 5 5 7 12 17 17 10 4 3 4 2 1 2 2 1 1 2 2 2 1 0 1 3 3 1 1 3 4 5 5 4 4 3 4 4 5 6 6 7 9 10 11 11 11 10 11 13 15 15 15 15 14 13 12 11 10 9 9 8 8 7 6 5 5 5 4 3 3 2 2 1
5 5 5 8 13 14 10 4 4 6 7 6 6 6 6 4 2 1 6 11 13 10 5 3 3 3 3 2 2 1 2 2 2 2 2 2 2 2 1 2 3 4 5 6 6 6 5 5 4 5 5 5 5 6 7 9 10 11 11 11 11 12 12 13 13 13 12 11 11 11 10 9 9 8 8 7 7 6 5 5 5 5 4 3 3 3 3
Wind_Direction
268 267 268 270 270 268 264 262 256 243 233 226 225 235 233 221 230 230 220 214 199 187 188 219 193 211 218 213 220 223 214 221 219 209 209 218 228 227 230 227 222 222 210 203 181 169 190 202 201 210 209 209 196 177 176 170 161 157 158 187 157 99 115 194 198 171 129 79 61 54 43 60 95 242 198 186 204 200 201 223 174 171 224 196 174 260 263
267 266 265 265 265 264 261 260 255 241 231 223 223 235 237 229 232 219 199 206 199 185 183 206 197 223 220 218 226 223 229 228 216 210 203 206 217 220 225 223 219 224 216 214 198 176 192 213 205 207 205 206 199 179 173 168 165 174 182 171 160 154 167 144 135 226 221 85 346 338 352 176 213 224 205 205 209 201 219 243 74 253 228 172 195 246 243
266 267 263 261 261 261 257 257 254 242 230 221 220 232 238 234 236 215 192 192 191 190 201 198 195 214 214 219 218 216 232 228 221 229 213 206 209 214 225 222 214 220 219 236 231 198 204 218 205 208 205 202 213 180 174 172 175 191 186 166 158 163 174 148 167 216 223 224 231 212 191 194 224 219 204 213 210 197 207 213 208 241 223 164 215 246 247
265 267 263 258 258 258 255 254 254 247 233 222 222 231 233 216 220 219 198 195 195 199 203 198 196 204 207 218 213 213 226 219 220 236 232 218 215 214 224 216 206 216 214 226 237 221 218 218 200 208 199 190 339 176 177 179 180 180 169 159 151 137 182 181 194 212 224 238 242 169 145 164 203 210 202 209 212 203 201 210 220 226 209 208 229 240 257
263 265 263 258 254 254 253 251 253 250 236 223 225 234 238 220 191 188 196 211 220 215 202 199 202 197 196 198 197 209 218 216 211 217 222 226 221 217 223 203 198 207 207 216 228 225 225 222 215 216 193 156 5 122 175 186 176 155 155 160 150 79 195 197 207 217 228 243 248 204 160 181 203 205 204 208 208 203 203 218 224 200 194 247 233 210 245
262 263 263 259 254 252 251 249 251 251 240 223 221 234 238 232 213 203 196 198 231 235 209 199 196 190 189 194 198 206 213 214 205 202 213 226 221 214 221 212 209 206 202 211 223 219 223 225 223 220 191 127 83 97 17 208 171 146 154 167 151 123 206 209 210 222 236 244 246 229 190 195 205 201 206 207 202 204 207 218 225 198 207 248 234 184 232
261 261 262 262 257 251 249 247 246 249 246 231 218 227 232 229 253 235 218 218 215 210 212 201 198 192 184 194 211 207 208 214 213 202 200 218 216 207 211 218 217 211 204 208 214 209 211 220 223 216 194 159 140 164 233 242 167 132 140 183 163 148 214 220 202 222 245 245 242 237 221 223 227 213 212 208 204 209 210 216 224 214 224 245 243 225 242
260 258 259 262 260 253 246 246 245 245 250 247 231 227 226 223 235 221 211 243 251 199 190 213 227 205 189 195 208 203 207 216 217 209 200 203 205 204 215 222 217 212 212 212 218 218 212 219 222 205 193 190 171 184 192 156 151 142 139 184 247 178 217 228 155 216 253 247 241 240 237 243 248 242 234 223 215 213 211 217 223 219 232 244 244 250 255
258 257 257 259 261 258 247 243 244 244 248 252 244 236 230 226 231 218 197 230 254 199 197 198 223 226 201 206 207 200 211 217 214 213 213 212 206 197 214 225 218 212 218 218 225 227 219 225 233 211 195 207 205 203 179 140 143 173 170 159 163 178 205 70 118 207 249 246 236 235 240 247 254 254 246 234 224 213 210 218 217 210 227 238 237 247 250
255 256 257 257 259 260 254 244 241 243 248 248 248 249 239 230 224 208 197 213 207 187 204 193 200 211 204 220 221 212 219 221 214 214 216 218 220 212 211 220 218 212 219 220 228 234 234 242 255 248 226 225 221 213 196 168 160 170 171 158 162 173 188 195 172 213 249 245 215 211 227 238 243 246 243 234 225 215 215 222 220 213 217 224 225 238 244
252 254 255 256 258 259 257 249 240 238 244 245 246 253 247 237 229 206 189 208 219 188 203 203 203 188 167 219 233 233 232 228 216 213 213 216 222 220 214 215 216 216 221 223 229 235 237 240 247 241 224 228 220 207 202 191 183 179 169 156 170 182 195 208 187 211 249 236 132 137 204 222 233 245 244 230 218 214 218 224 222 215 213 223 236 245 230
248 252 252 253 257 258 256 253 244 236 238 242 246 249 247 240 236 222 198 201 199 173 190 222 215 177 165 210 235 241 240 239 223 217 219 216 217 218 215 215 214 210 214 220 218 213 208 211 222 130 126 103 114 182 193 197 199 193 182 175 176 183 195 204 183 206 242 139 111 173 217 223 247 330 354 231 215 211 219 230 231 221 215 225 240 241 200
246 248 251 251 253 254 253 252 248 237 235 240 247 249 247 238 227 215 196 184 203 173 172 204 196 170 174 201 221 237 243 264 271 222 220 220 200 202 212 217 218 205 192 193 189 176 156 92 64 59 60 54 38 33 196 199 201 198 199 199 184 180 190 195 174 185 174 130 181 217 240 269 295 330 330 239 184 188 212 234 239 227 215 217 229 230 210
247 246 249 251 250 250 250 248 246 241 238 242 248 251 249 240 226 214 200 188 207 187 175 157 156 184 191 188 187 204 229 235 250 252 210 208 189 185 203 208 206 193 175 167 163 154 129 83 128 138 60 76 26 303 203 205 215 197 205 211 191 180 184 187 195 194 189 207 217 233 310 299 269 252 196 182 172 172 188 222 241 229 212 209 222 223 191
249 248 248 251 250 248 248 246 244 241 239 242 246 249 249 241 228 222 213 202 190 181 191 200 189 179 186 179 170 176 178 190 209 212 124 148 131 145 182 184 178 172 163 157 149 135 132 145 163 176 179 171 200 222 160 140 344 284 223 215 190 196 191 188 203 204 191 217 232 234 269 265 254 229 194 198 208 189 177 202 248 242 204 198 207 209 173
250 250 249 251 251 248 247 248 248 242 237 239 242 244 246 243 231 225 221 208 194 191 212 211 197 161 146 167 177 187 202 177 173 155 128 158 137 139 157 160 164 167 162 152 123 114 138 166 174 181 191 177 170 160 128 146 163 12 11 48 137 200 198 183 201 206 188 208 223 217 229 242 241 229 221 221 215 152 133 184 253 269 202 193 194 188 165
252 253 251 251 253 251 247 249 254 250 238 237 241 240 240 240 233 227 225 214 204 231 224 201 184 150 126 150 171 180 176 145 152 160 167 167 141 140 147 145 156 168 164 151 99 123 164 197 188 188 207 161 147 140 125 154 172 153 95 115 142 164 164 177 205 212 200 207 220 226 239 244 193 209 233 232 154 138 122 175 251 296 1 193 188 174 159
257 257 255 253 254 253 249 247 252 256 248 240 244 244 239 235 231 229 229 219 206 233 232 199 182 169 177 184 165 162 159 142 122 28 108 130 126 154 158 147 146 168 167 159 153 173 191 202 194 198 208 160 149 150 139 156 176 172 153 139 146 190 191 190 210 216 210 212 224 241 252 227 196 208 214 167 128 138 154 196 246 325 26 136 166 163 162
257 258 258 256 254 254 252 247 247 252 254 248 247 248 244 237 229 225 228 224 212 221 220 201 194 195 195 179 153 149 153 148 144 138 115 141 155 148 145 139 136 162 162 157 160 182 193 197 179 177 180 169 173 162 140 155 152 138 149 154 167 186 180 193 212 215 213 216 222 246 273 211 157 161 205 150 122 170 194 171 181 256 147 101 142 167 166
252 254 256 255 254 254 254 251 247 247 249 249 247 247 249 246 234 223 222 222 220 223 214 203 203 204 196 184 173 164 156 150 152 149 143 191 157 140 129 154 178 149 142 169 171 175 184 175 153 143 161 179 177 131 98 127 90 127 160 182 193 177 170 192 207 193 180 208 204 213 258 178 140 128 113 120 143 163 148 119 96 180 174 179 208 195 176
251 252 253 253 253 253 254 254 252 248 247 249 248 248 249 249 242 230 221 216 217 224 215 211 212 209 202 202 203 198 193 190 185 174 152 153 162 159 147 188 158 149 145 166 161 163 162 150 138 120 127 149 156 135 125 128 280 289 151 151 229 187 176 205 213 177 165 194 196 211 270 165 138 120 105 142 131 135 142 139 148 164 164 168 172 166 169
251 251 251 250 250 251 252 254 254 250 247 246 248 252 250 246 245 238 224 217 216 216 213 215 215 211 209 209 211 212 212 210 203 194 174 156 166 181 172 103 128 162 180 115 104 101 157 137 129 122 118 114 133 139 119 124 153 165 133 169 229 211 156 180 195 136 118 162 170 208 230 151 127 73 90 138 142 148 169 178 166 157 158 157 148 140 155
250 250 249 248 247 247 248 251 252 251 248 244 244 248 247 242 241 239 229 222 218 213 215 215 209 209 212 210 205 205 206 202 204 205 193 172 170 188 184 154 152 168 174 155 113 55 110 141 146 123 126 159 137 116 36 5 159 163 190 220 241 149 106 74 59 105 56 61 95 112 145 150 144 125 136 150 155 155 156 157 152 147 152 158 159 170 193
249 249 248 247 246 245 245 247 248 249 249 245 243 247 248 244 240 236 229 220 209 198 204 208 200 205 211 208 201 199 200 198 197 200 201 195 186 184 190 182 173 166 170 175 155 105 97 96 48 90 140 161 137 134 164 202 192 170 162 202 278 217 162 121 84 161 173 86 76 91 139 153 156 154 154 155 155 154 154 156 156 154 161 174 190 214 221
249 248 247 247 246 244 242 243 244 246 248 246 245 248 250 246 240 232 221 208 197 192 190 200 204 211 215 208 203 203 204 203 199 195 200 205 202 199 196 187 179 176 178 176 161 127 99 80 60 104 171 170 153 160 165 173 186 172 167 205 255 174 159 156 149 138 123 113 137 88 133 160 168 165 163 163 161 162 166 169 169 174 188 201 215 224 226
249 247 245 244 244 243 241 241 241 242 246 246 246 248 249 247 242 229 214 202 196 203 208 183 200 209 210 205 206 207 205 202 201 198 198 203 207 210 204 188 180 179 174 169 168 156 121 84 109 166 208 200 138 139 144 112 90 152 216 219 137 126 144 161 137 117 96 67 192 130 106 155 203 191 178 176 174 173 175 178 184 198 209 214 221 227 230
248 246 244 243 242 242 241 240 239 238 240 243 244 246 249 249 247 235 216 201 189 202 227 195 184 196 200 203 206 206 203 202 201 201 201 202 205 209 207 194 184 176 164 153 154 151 126 97 124 157 167 103 80 73 48 71 64 2 246 210 129 125 153 154 109 140 181 181 180 177 143 157 217 207 194 187 183 181 183 189 199 211 219 222 227 226 219
247 244 243 242 240 240 238 238 239 235 235 240 242 244 251 251 249 246 228 207 196 209 323 131 150 170 189 202 205 202 201 203 202 200 201 203 203 204 203 196 185 176 166 154 144 140 144 154 138 111 117 121 109 109 53 63 40 276 244 194 165 156 174 167 142 158 210 176 176 180 168 152 200 203 198 193 191 190 196 209 220 224 224 225 228 224 213
245 242 242 239 238 239 235 234 237 235 233 239 240 240 249 252 246 246 238 216 207 210 92 90 133 156 173 192 197 196 196 198 200 201 200 198 198 198 195 191 186 179 171 161 152 142 142 151 143 140 160 153 139 164 134 105 245 254 193 172 179 181 181 177 165 143 130 170 174 175 166 153 184 196 196 194 194 199 214 227 232 232 231 233 235 234 233
242 240 238 236 237 237 233 231 234 231 230 236 238 233 239 249 244 240 237 223 213 207 188 104 139 168 162 170 180 185 186 187 192 198 199 196 193 191 188 186 183 178 171 163 161 153 136 138 145 159 168 157 138 149 190 180 248 259 156 159 171 175 174 180 178 163 153 163 167 169 169 166 172 183 192 197 202 213 224 230 232 231 231 233 233 233 235
240 237 235 234 234 234 232 231 229 227 227 227 224 216 210 240 247 238 231 224 215 207 197 137 125 152 146 161 174 178 181 182 183 186 189 188 183 181 183 184 181 178 175 167 162 164 159 149 156 170 171 163 157 158 161 167 257 274 162 154 161 166 168 171 170 161 154 157 163 169 175 180 184 189 197 206 213 219 222 223 220 213 212 216 219 224 230
237 234 232 233 232 230 231 229 225 226 227 221 217 216 210 217 244 233 222 219 212 202 190 143 127 156 138 161 171 171 172 175 174 171 173 177 174 172 178 184 183 181 177 165 156 176 185 157 153 164 168 167 166 132 128 194 241 233 149 151 162 172 173 167 159 157 158 161 164 165 173 189 195 196 201 209 212 207 200 198 201 206 215 227 235 242 246
237 232 230 232 230 228 229 228 224 226 228 224 225 227 221 222 237 215 203 206 201 193 186 163 116 190 166 144 157 163 161 161 162 159 160 174 177 171 173 181 181 179 178 172 161 168 172 151 144 157 170 169 156 118 233 232 219 154 141 154 166 171 171 166 159 160 167 173 175 178 193 202 200 195 196 202 195 182 185 203 225 237 246 255 259 263 270
240 233 231 232 228 226 226 224 224 228 227 226 231 230 225 228 236 216 196 194 186 181 189 186 108 106 146 124 144 169 164 155 152 154 154 172 177 169 164 169 172 173 188 193 178 148 153 156 142 148 175 166 132 150 252 232 168 139 145 162 170 169 168 167 167 170 175 181 189 197 205 208 205 199 198 202 204 209 217 225 236 244 248 254 259 265 272
245 235 231 229 226 225 223 219 221 226 225 224 229 230 227 227 228 221 208 195 179 166 196 186 150 121 153 120 111 177 169 157 149 153 147 151 169 169 160 157 173 187 191 186 176 151 171 169 152 149 174 154 151 223 236 181 141 143 151 161 165 165 164 166 176 185 188 188 195 202 203 205 207 203 204 210 215 223 229 230 234 241 246 249 255 262 267
251 239 230 222 220 223 223 218 218 220 221 222 225 228 230 227 221 222 219 203 187 169 165 163 149 161 163 132 134 166 162 152 143 145 135 128 160 172 165 152 183 205 181 167 162 179 184 174 160 160 196 184 204 224 195 142 144 157 163 166 169 171 174 182 190 196 197 196 201 207 208 212 216 214 219 224 223 225 232 233 235 242 246 251 259 266 270
250 244 229 216 214 221 227 225 221 217 218 221 222 223 228 223 209 205 210 206 202 202 187 171 176 177 165 130 132 159 159 151 140 138 130 126 149 167 168 163 183 185 159 156 265 181 175 168 153 169 213 215 226 233 202 157 156 163 169 179 186 188 195 203 198 193 194 196 203 211 218 226 230 228 229 231 228 228 233 235 238 248 255 261 268 270 267
255 252 231 209 204 206 218 226 224 218 218 221 220 215 211 203 191 188 197 203 210 213 202 196 181 167 159 125 148 164 163 150 135 140 146 149 151 152 157 181 206 164 139 233 204 167 158 146 149 192 241 246 247 249 237 208 200 203 204 211 211 205 206 208 200 194 191 188 196 209 214 220 225 225 226 229 231 233 237 240 245 253 258 261 264 262 260
257 257 240 215 205 204 213 223 222 216 213 213 211 205 193 185 183 182 185 187 196 199 194 194 182 169 159 113 144 168 166 147 131 154 164 160 166 164 133 168 207 148 117 241 190 164 159 200 189 202 256 256 250 250 244 223 214 219 217 215 212 208 210 214 214 212 210 211 221 225 223 225 230 229 228 231 233 236 240 242 244 248 250 253 257 258 259
248 247 237 222 215 215 219 223 216 206 200 197 195 200 202 189 184 179 165 163 174 189 179 176 180 180 174 158 150 169 177 172 164 161 155 161 168 154 121 147 193 139 149 234 175 152 155 177 166 201 244 248 249 249 239 216 206 204 199 197 200 203 206 211 214 217 220 228 238 240 238 239 239 234 232 232 231 233 236 237 238 241 244 248 253 255 256
240 233 228 236 236 227 216 203 188 185 187 185 184 202 219 194 193 202 156 160 190 195 169 163 165 182 182 169 154 158 177 176 161 138 133 162 166 147 141 221 178 136 192 218 150 131 137 141 153 222 239 233 232 223 204 197 198 196 192 196 202 205 207 209 211 214 217 221 228 231 230 230 230 228 230 230 227 227 230 231 234 239 242 245 249 251 253
237 230 232 245 238 213 191 179 173 173 174 174 186 228 232 182 172 306 183 183 198 175 167 166 164 166 172 168 155 142 156 162 150 128 131 171 158 143 151 223 117 140 196 160 126 113 125 157 193 238 224 137 131 157 171 177 183 186 190 197 204 207 210 210 211 215 217 219 222 223 221 222 226 229 232 231 229 229 231 231 234 239 240 242 245 247 250
242 241 246 250 224 193 178 174 172 167 159 165 172 180 220 227 123 98 145 262 336 140 164 161 150 147 160 162 147 125 143 155 150 132 140 155 132 122 130 147 151 172 174 113 118 138 170 180 211 230 154 126 137 152 158 163 172 179 187 195 200 204 207 207 209 213 215 216 219 222 222 226 231 233 233 232 230 230 230 228 229 231 232 235 239 243 246
239 232 230 231 210 185 177 175 166 159 168 205 184 171 191 211 196 152 183 206 195 189 180 166 154 148 155 155 141 122 143 157 151 125 121 140 120 112 159 177 168 141 83 83 133 167 180 202 217 157 128 135 147 151 153 160 168 174 181 189 192 195 198 200 202 206 209 210 214 218 221 226 228 226 225 223 219 218 220 220 219 222 226 232 239 245 251
225 214 202 197 181 169 167 161 149 155 180 195 185 184 194 194 186 183 186 174 164 166 177 172 163 154 147 145 141 132 136 153 153 149 141 133 129 169 172 162 118 99 109 135 145 150 194 218 186 116 127 142 151 152 157 164 167 170 174 176 177 180 184 186 188 190 191 193 197 200 204 208 208 205 206 205 201 201 207 210 210 216 224 233 242 249 255
213 203 192 191 175 173 180 182 159 183 200 181 175 189 196 189 187 190 180 166 158 160 169 169 161 151 139 132 133 131 131 140 148 151 125 119 137 179 143 97 77 107 140 149 156 186 206 206 116 103 129 145 149 154 161 163 165 169 169 166 167 172 174 174 176 177 177 177 180 182 184 186 187 188 190 190 190 190 192 194 198 204 211 225 240 247 252
204 193 195 213 180 169 199 205 163 156 157 148 159 186 193 186 181 180 179 177 173 165 157 147 137 136 136 123 110 120 133 132 130 139 133 126 128 106 79 82 129 167 162 171 189 200 199 146 92 105 131 142 144 152 156 155 158 164 164 161 164 166 165 164 166 167 167 169 171 173 174 175 177 177 175 174 176 177 175 178 185 190 196 212 227 233 240
188 174 177 195 191 187 198 166 132 107 85 129 141 158 174 175 173 173 177 179 173 162 152 141 124 115 114 99 101 121 137 118 130 151 127 98 103 115 107 122 189 191 175 184 191 180 100 76 94 117 131 138 145 148 147 146 150 153 154 157 160 160 160 162 162 162 163 165 165 166 167 167 166 166 164 163 168 173 173 177 186 191 195 205 215 222 234
163 153 145 119 40 303 236 151 130 104 52 128 145 150 162 162 154 158 168 172 169 162 157 151 145 143 142 86 96 115 182 163 144 139 111 112 138 157 150 156 181 195 196 177 134 86 63 64 96 118 124 135 143 144 142 143 144 142 144 151 159 161 162 163 160 158 160 161 158 158 160 160 159 161 162 162 168 174 175 177 182 185 185 191 199 210 235
97 98 72 52 74 342 312 168 139 120 70 83 93 82 102 138 132 140 158 167 161 153 144 129 120 122 119 69 103 120 256 226 138 116 124 157 170 160 152 163 183 190 151 83 64 60 60 75 115 132 129 128 134 140 141 140 139 138 139 143 152 158 159 158 156 155 155 155 153 154 156 156 157 158 159 158 159 161 161 162 164 163 163 167 170 176 207
66 71 49 39 41 10 324 312 113 107 112 108 59 29 29 75 110 124 147 158 157 151 142 122 114 115 98 116 155 153 128 113 117 110 111 119 16 157 159 164 169 67 82 78 64 52 48 57 86 109 118 124 131 138 138 135 135 136 136 137 143 150 153 152 151 151 150 150 151 151 151 152 152 151 149 148 145 142 143 147 147 144 143 145 147 152 164
58 72 69 45 28 11 351 346 51 59 60 62 51 42 47 45 19 128 159 165 167 160 138 103 107 119 127 158 169 122 87 106 126 127 106 65 14 3 103 93 45 47 66 70 60 46 37 42 66 87 101 116 125 130 132 134 135 135 135 134 138 143 146 145 145 145 145 147 147 147 146 145 143 140 138 138 136 134 136 138 136 135 137 139 140 145 149